This is the latest recevied weather packets stored in our database for station/object KC5EZZ-2. If no packets are shown the sender has not sent any weather packets the latest 1 day(s).
| Time | Temp. | Humidity | Pressure | Rain* | Wind** | Luminosity | Snow |
|---|---|---|---|---|---|---|---|
| 1778018705 | 34.44° C | - | - | 0 mm | 3.58 m/s, 214° | - | - |
| 1778018403 | 34.44° C | - | - | 0 mm | 2.68 m/s, 232° | - | - |
| 1778018103 | 33.33° C | - | - | 0 mm | 4.02 m/s, 242° | - | - |
| 1778017803 | 34.44° C | - | - | 0 mm | 3.13 m/s, 242° | - | - |
| 1778017501 | 34.44° C | - | - | 0 mm | 1.79 m/s, 222° | - | - |
| 1778017201 | 33.33° C | - | - | 0 mm | 2.24 m/s, 203° | - | - |
| 1778016901 | 33.89° C | - | - | 0 mm | 3.58 m/s, 257° | - | - |
| 1778016849 | 33.89° C | - | - | 0 mm | 4.02 m/s, 221° | - | - |
| 1778016598 | 33.89° C | - | - | 0 mm | 4.02 m/s, 221° | - | - |
| 1778016298 | 34.44° C | - | - | 0 mm | 4.02 m/s, 252° | - | - |
| 1778015998 | 34.44° C | - | - | 0 mm | 4.02 m/s, 242° | - | - |
| 1778015696 | 34.44° C | - | - | 0 mm | 3.58 m/s, 285° | - | - |
| 1778015396 | 33.89° C | - | - | 0 mm | 2.68 m/s, 269° | - | - |
| 1778015096 | 34.44° C | - | - | 0 mm | 4.47 m/s, 277° | - | - |
| 1778014794 | 35° C | - | - | 0 mm | 3.58 m/s, 295° | - | - |
| 1778014494 | 34.44° C | - | - | 0 mm | 4.47 m/s, 284° | - | - |
| 1778014194 | 34.44° C | - | - | 0 mm | 4.02 m/s, 215° | - | - |
| 1778013892 | 35° C | - | - | 0 mm | 4.92 m/s, 269° | - | - |
| 1778013592 | 35.56° C | - | - | 0 mm | 3.13 m/s, 293° | - | - |
| 1778013292 | 35° C | - | - | 0 mm | 1.79 m/s, 239° | - | - |
| 1778012989 | 35° C | - | - | 0 mm | 2.24 m/s, 281° | - | - |
| 1778012690 | 34.44° C | - | - | 0 mm | 2.68 m/s, 257° | - | - |
| 1778012390 | 35° C | - | - | 0 mm | 2.68 m/s, 264° | - | - |
| 1778012087 | 34.44° C | - | - | 0 mm | 2.68 m/s, 300° | - | - |
| 1778011788 | 34.44° C | - | - | 0 mm | 2.68 m/s, 252° | - | - |
* Rain latest hour (hover to see other rain measurements)
** Current wind speed in m/s (hover to see current wind gust speed)